[[{"header":{"parameterUnit":"m.s-1","parameterCategory":1,"la1":30.2991,"la2":30.254,"lo1":-89.0895,"lo2":-89.0444,"dy":0.0017,"dx":0.0017,"nx":28,"ny":28,"refTime":"2025-01-27T09:00:00:Z","depth":0,"parameterNumber":2,"parameterNumberName":"U-component_of_WINDS"},"data":[0,0,0,0,0,0,0,0,0,0,0,0,0,0,0,0,0,0,0,0,0,0,0,0,0,0,0,0,0,0,0,0,0,0,0,0,0,0,0,0,0,0,0,0,0,0,0,0,0,0,0,0,0,0,0,0,0,0,0.5582,0.5582,0,0.5645,0.5646,0.5647,0.5683,0.5683,0.5683,0.5683,0.575,0.5751,0.5753,0,0,0,0,0,0,0,0,0,0,0,0,0,0.5492,0.5493,0.5582,0.5582,0.5583,0.5645,0.5646,0.5647,0.5683,0.5683,0.5683,0.5683,0.5749,0.5751,0.5753,0,0,0,0,0,0,0,0,0,0,0,0,0,0.5541,0.5494,0.5581,0.5609,0.5612,0.5645,0.5646,0.5647,0.5683,0.5683,0.5683,0.5684,0.5749,0.5751,0.5753,0.5765,0,0,0.5761,0.5762,0,0,0,0,0,0,0,0,0.5538,0.5544,0.5604,0.5607,0.561,0.5656,0.5639,0.5687,0.5683,0.5656,0.5683,0.5684,0.5719,0.5724,0.5735,0.5768,0.5771,0.5761,0.5763,0.5764,0.5764,0,0,0,0,0,0,0,0.5534,0.5541,0.5607,0.5605,0.5609,0.5618,0.5625,0.5648,0.5686,0.5658,0.5661,0.5668,0.572,0.5733,0.5737,0.5772,0.5761,0.5763,0.5765,0.5766,0.5817,0.5817,0,0,0,0,0,0,0.5527,0.5538,0.5605,0.5609,0.5574,0.5619,0.5627,0.5641,0.5685,0.5692,0.5668,0.567,0.5728,0.5734,0.5739,0.5755,0.5764,0.5766,0.5767,0.5817,0.5817,0.5817,0,0,0,0,0,0,0.5525,0.5532,0.5602,0.5574,0.5584,0.5621,0.5636,0.5643,0.5655,0.5693,0.57,0.5673,0.5729,0.5736,0.5758,0.5758,0.5767,0.5769,0.5817,0.5817,0.5817,0.5787,0,0,0,0,0,0,0.5522,0.5531,0.5536,0.5574,0.5585,0.562,0.5636,0.5644,0.5659,0.5662,0.57,0.5706,0.5729,0.5754,0.5761,0.5762,0.5771,0.5817,0.5817,0.5817,0.5789,0.5786,0.5784,0,0,0,0,0,0.5519,0.5525,0.5536,0.5544,0.5592,0.562,0.5626,0.5652,0.5659,0.5664,0.5688,0.5705,0.5757,0.5756,0.5764,0.5766,0.5818,0.5817,0.5817,0.579,0.5787,0.5784,0,0,0,0,0,0,0.5487,0.5531,0.5543,0.5563,0.5587,0.5626,0.5633,0.5649,0.5672,0.5674,0.5706,0.5714,0.5733,0.5752,0.575,0.5779,0.5789,0.579,0.5766,0.5763,0.5761,0.5756,0.5773,0,0,0,0,0,0.5482,0.55,0.5538,0.5552,0.5563,0.5596,0.5609,0.5627,0.5654,0.5664,0.569,0.5716,0.5738,0.5752,0.5774,0.5792,0.58,0.5797,0.5794,0.5792,0.5793,0.5803,0.5802,0.5816,0.5816,0.5816,0,0,0.5472,0.5498,0.5508,0.5546,0.5567,0.5585,0.5604,0.5623,0.5637,0.5667,0.569,0.5709,0.574,0.5759,0.5769,0.5776,0.5791,0.5792,0.579,0.5792,0.5802,0.5801,0.58,0.5816,0.5816,0.5816,0,0,0.5463,0.5486,0.5499,0.5519,0.5551,0.5572,0.5576,0.5612,0.5626,0.5649,0.5671,0.5689,0.5727,0.5747,0.5763,0.5762,0.5778,0.5768,0.5757,0.5766,0.5765,0.5764,0.5763,0.5763,0.5769,0.5769,0.5769,0,0.5447,0.5476,0.5504,0.5521,0.5537,0.5565,0.5578,0.5597,0.5634,0.5645,0.5651,0.5699,0.5721,0.5746,0.5745,0.5757,0.5762,0.5764,0.5763,0.5762,0.5762,0.5761,0.5761,0.5767,0.5767,0.5768,0.5768,0,0.5454,0.5474,0.5481,0.5516,0.5532,0.5548,0.5578,0.5592,0.5608,0.5629,0.5652,0.568,0.5708,0.5716,0.5732,0.5742,0.5745,0.5757,0.5768,0.5759,0.5759,0.5759,0.5765,0.5766,0.5766,0.5766,0,0,0.5427,0.5477,0.5479,0.5495,0.5532,0.5547,0.5564,0.5591,0.5602,0.5627,0.5641,0.5673,0.5683,0.5701,0.572,0.5729,0.5725,0.5739,0.5741,0.5735,0.5737,0.5727,0.5727,0.5736,0.5736,0.5736,0.5734,0,0.5424,0.5455,0.548,0.5502,0.552,0.5546,0.5561,0.5585,0.5605,0.5623,0.5645,0.5666,0.568,0.569,0.57,0.5723,0.5726,0.5724,0.575,0.5751,0.5741,0.5727,0.5717,0.5713,0.5734,0.5735,0.5735,0,0.5424,0.5447,0.547,0.5504,0.5513,0.5525,0.5552,0.5569,0.5597,0.5611,0.563,0.565,0.5669,0.5678,0.5705,0.5703,0.5715,0.5728,0.5729,0.5732,0.5741,0.5729,0.5713,0.5712,0.5735,0.5735,0.5735,0,0.5401,0.5438,0.5456,0.5469,0.551,0.5518,0.5535,0.5563,0.5578,0.5601,0.5611,0.5637,0.5651,0.567,0.5697,0.5701,0.572,0.5732,0.5732,0.5731,0.5734,0.5733,0.5719,0.5743,0.5743,0.5743,0.5743,0,0.5394,0.5406,0.5446,0.5457,0.5473,0.5502,0.5516,0.5536,0.5561,0.5576,0.5601,0.5615,0.5649,0.5668,0.5689,0.5707,0.5713,0.5725,0.573,0.5722,0.5721,0.573,0.5731,0.5743,0.5743,0.5743,0.5743,0,0.537,0.5398,0.5419,0.5456,0.5465,0.5475,0.5506,0.5518,0.5539,0.5559,0.5565,0.5598,0.5621,0.5649,0.5681,0.5695,0.5711,0.572,0.5701,0.5704,0.5703,0.5702,0.5694,0.5694,0.5718,0.5717,0.5717,0,0.5364,0.5374,0.5411,0.5423,0.544,0.5459,0.5474,0.5503,0.5518,0.555,0.5558,0.5582,0.5603,0.5639,0.5666,0.569,0.5699,0.5695,0.5703,0.5694,0.5698,0.5697,0.5698,0.5692,0.5692,0.5691,0.5691,0,0.5349,0.5361,0.5382,0.5407,0.5424,0.5445,0.5467,0.5476,0.5509,0.5524,0.5548,0.5564,0.5596,0.562,0.5648,0.5666,0.5684,0.5688,0.5689,0.5681,0.567,0.5675,0.5695,0.5688,0.5688,0.5689,0.5689,0.5689,0.5333,0.5343,0.5371,0.5393,0.5412,0.5433,0.5445,0.5468,0.5488,0.5516,0.5532,0.5555,0.5582,0.5621,0.5639,0.5657,0.5663,0.5665,0.5666,0.5665,0.5663,0.5667,0.5662,0.5662,0.5662,0.5662,0.5663,0,0.5318,0.5338,0.5357,0.5387,0.5404,0.542,0.5445,0.5458,0.5477,0.5501,0.5521,0.5548,0.5571,0.56,0.5625,0.5634,0.5643,0.5639,0.5639,0.5642,0.5656,0.5652,0.5632,0.5632,0.5632,0.5632,0.5632,0.5632,0.5313,0.5331,0.5347,0.5375,0.5394,0.5416,0.5429,0.5447,0.5467,0.5495,0.5514,0.5533,0.5558,0.5586,0.5607,0.5615,0.5623,0.5617,0.5627,0.5639,0.5642,0.5644,0.5641,0.5619,0.5619,0.5613,0.5613,0.5613]},{"header":{"parameterUnit":"m.s-1","parameterCategory":1,"la1":30.2991,"la2":30.254,"lo1":-89.0895,"lo2":-89.0444,"dy":0.0017,"dx":0.0017,"nx":28,"ny":28,"refTime":"2025-01-27T09:00:00:Z","depth":0,"parameterNumber":3,"parameterNumberName":"V-component_of_WINDS"},"data":[0,0,0,0,0,0,0,0,0,0,0,0,0,0,0,0,0,0,0,0,0,0,0,0,0,0,0,0,0,0,0,0,0,0,0,0,0,0,0,0,0,0,0,0,0,0,0,0,0,0,0,0,0,0,0,0,0,0,0.4127,0.4127,0,0.4117,0.4117,0.4117,0.4131,0.4131,0.4132,0.4132,0.4119,0.4118,0.4117,0,0,0,0,0,0,0,0,0,0,0,0,0,0.4158,0.4157,0.4128,0.4127,0.4127,0.4117,0.4117,0.4117,0.4131,0.4131,0.4132,0.4132,0.4119,0.4118,0.4117,0,0,0,0,0,0,0,0,0,0,0,0,0,0.4146,0.4157,0.4128,0.4133,0.4133,0.4117,0.4117,0.4117,0.413,0.4131,0.4132,0.4133,0.412,0.4118,0.4117,0.4094,0,0,0.4113,0.4113,0,0,0,0,0,0,0,0,0.4146,0.4145,0.4132,0.4133,0.4133,0.4126,0.4123,0.4109,0.413,0.4131,0.4132,0.4133,0.4121,0.4119,0.4116,0.4094,0.4093,0.4113,0.4113,0.4112,0.4112,0,0,0,0,0,0,0,0.4147,0.4145,0.4123,0.4132,0.4133,0.4135,0.4135,0.412,0.4122,0.4131,0.4132,0.4131,0.4121,0.4117,0.4115,0.4093,0.4113,0.4112,0.4112,0.4111,0.4052,0.4051,0,0,0,0,0,0,0.4148,0.4146,0.4124,0.4123,0.4142,0.4134,0.4133,0.4127,0.4122,0.4122,0.413,0.4132,0.4118,0.4117,0.4115,0.4088,0.4112,0.4111,0.411,0.4053,0.4052,0.4051,0,0,0,0,0,0,0.4148,0.4146,0.4124,0.4135,0.4132,0.4133,0.4126,0.4127,0.4123,0.4121,0.4121,0.4126,0.4119,0.4117,0.41,0.4088,0.411,0.4109,0.4054,0.4052,0.4051,0.4034,0,0,0,0,0,0,0.4149,0.4146,0.4137,0.4134,0.4131,0.4109,0.4125,0.4126,0.4121,0.4122,0.4117,0.4117,0.4119,0.4101,0.4098,0.4086,0.4108,0.4055,0.4053,0.4051,0.4035,0.4032,0.4029,0,0,0,0,0,0.415,0.4132,0.4137,0.4134,0.4121,0.4109,0.4107,0.4111,0.412,0.4111,0.411,0.4117,0.4089,0.4099,0.4096,0.4084,0.4055,0.4053,0.4052,0.4037,0.4033,0.4029,0,0,0,0,0,0,0.4133,0.4132,0.4137,0.4118,0.4113,0.4111,0.41,0.4106,0.4098,0.41,0.4104,0.4103,0.4085,0.4082,0.4094,0.4061,0.4074,0.4071,0.4064,0.406,0.4057,0.4058,0.4107,0,0,0,0,0,0.4127,0.4118,0.4117,0.41,0.4098,0.4099,0.4094,0.4097,0.4092,0.409,0.4088,0.4083,0.4073,0.4066,0.4057,0.4035,0.4034,0.4025,0.4022,0.4019,0.4017,0.4005,0.4001,0.4044,0.4044,0.4045,0,0,0.4115,0.4113,0.4107,0.4097,0.4094,0.4083,0.4098,0.4086,0.4078,0.4088,0.4072,0.407,0.4064,0.4045,0.4036,0.4042,0.4005,0.4017,0.4015,0.4014,0.4003,0.3999,0.3995,0.4043,0.4043,0.4044,0,0,0.4087,0.4085,0.4071,0.4068,0.4063,0.4064,0.4061,0.4058,0.4057,0.4041,0.4049,0.4039,0.4022,0.4017,0.4013,0.3984,0.399,0.398,0.3964,0.3953,0.395,0.3947,0.3936,0.3933,0.3978,0.3978,0.3978,0,0.4072,0.4058,0.4063,0.4051,0.4046,0.4056,0.4041,0.4037,0.403,0.4026,0.4033,0.4012,0.4009,0.3988,0.3981,0.3977,0.3973,0.3981,0.395,0.3947,0.3944,0.3934,0.393,0.3977,0.3977,0.3977,0.3977,0,0.4039,0.4029,0.4018,0.4011,0.4005,0.3992,0.3995,0.3988,0.3992,0.3992,0.3976,0.3972,0.3962,0.3958,0.3961,0.3938,0.3942,0.3949,0.3962,0.3939,0.393,0.3926,0.3975,0.3976,0.3976,0.3976,0,0,0.4001,0.3997,0.3993,0.399,0.3986,0.3978,0.3965,0.3956,0.395,0.3944,0.3934,0.3919,0.3926,0.3921,0.3924,0.3914,0.3891,0.3922,0.3922,0.3917,0.3865,0.386,0.3856,0.3895,0.3894,0.3894,0.3866,0,0.3973,0.3952,0.3956,0.3935,0.3925,0.3934,0.3923,0.3919,0.3919,0.391,0.391,0.3899,0.3909,0.3906,0.3897,0.3896,0.3881,0.3898,0.3884,0.3884,0.3886,0.3851,0.3845,0.3819,0.3862,0.3862,0.3861,0,0.3938,0.3932,0.391,0.3908,0.3904,0.3894,0.3886,0.3878,0.3873,0.3874,0.3868,0.3873,0.386,0.3873,0.3854,0.3866,0.386,0.3859,0.3858,0.3857,0.3871,0.3849,0.3811,0.3807,0.3856,0.3856,0.3857,0,0.3913,0.3899,0.3884,0.3881,0.3878,0.3871,0.3869,0.3865,0.3859,0.3853,0.3849,0.384,0.3836,0.3829,0.3831,0.384,0.3812,0.3825,0.3811,0.3811,0.3805,0.3806,0.3766,0.3801,0.3801,0.3802,0.3802,0,0.3882,0.3868,0.3872,0.3863,0.3848,0.3853,0.3837,0.3837,0.3833,0.3824,0.383,0.3821,0.3824,0.3815,0.3817,0.3801,0.3799,0.3799,0.3799,0.3798,0.3798,0.3795,0.3797,0.3801,0.3801,0.3801,0.3801,0,0.385,0.3853,0.3837,0.3836,0.3835,0.3824,0.3822,0.3813,0.3814,0.3802,0.3799,0.38,0.3789,0.3791,0.3779,0.378,0.3761,0.3763,0.3763,0.3763,0.375,0.3751,0.3707,0.3701,0.374,0.374,0.374,0,0.383,0.382,0.3818,0.3812,0.381,0.3801,0.3796,0.38,0.3794,0.3788,0.378,0.3771,0.3763,0.3746,0.3745,0.3736,0.3738,0.3723,0.3737,0.3736,0.3738,0.3739,0.3738,0.3721,0.372,0.372,0.372,0,0.3795,0.3797,0.379,0.3783,0.3777,0.3771,0.3766,0.3761,0.3765,0.3758,0.3748,0.3742,0.373,0.3721,0.3712,0.3709,0.3715,0.3715,0.3712,0.3711,0.3711,0.3711,0.3755,0.3716,0.3717,0.3717,0.3717,0.3717,0.3769,0.376,0.3758,0.3749,0.3746,0.3742,0.3734,0.3733,0.3725,0.3717,0.3719,0.3708,0.3703,0.3693,0.3689,0.368,0.3685,0.368,0.3679,0.3678,0.3676,0.3712,0.3678,0.3678,0.3678,0.3679,0.3679,0,0.3734,0.3733,0.3725,0.3719,0.3712,0.3719,0.3714,0.3707,0.3698,0.3693,0.3686,0.3674,0.3665,0.3663,0.3654,0.3647,0.3649,0.3645,0.3645,0.3645,0.3672,0.3676,0.3643,0.3643,0.3643,0.3643,0.3643,0.3643,0.3715,0.3701,0.3703,0.3687,0.3686,0.3676,0.3672,0.3668,0.3665,0.3652,0.3644,0.3644,0.364,0.3631,0.3623,0.3622,0.3619,0.3613,0.3614,0.3639,0.3643,0.3646,0.365,0.3612,0.3612,0.3587,0.3587,0.3587]}]]